sat.trackr.live / text

‹ back to catalog

STARLINK-36570

NORAD 67640 · 2026-020Z

PAYLOAD ACTIVE UNKNOWN

§ Identity

Operator
Country
US
Launch date
2026-01-30
Launch site
AFETR
Launch vehicle
Mass (kg)
RCS (m²)

Purposes: comms

External: N2YO · Heavens-Above · Gunter

§ Orbital elements

Epoch: 2026-09-19T08:22:17.978880Z

Period
94.27 min
Inclination
43.0031°
Eccentricity
0.0001619
Mean motion
15.27587891 rev/d
Perigee alt
481.9 km
Apogee alt
484.1 km
Semi-major
6,861.2 km
B*
4.1383e-4
RAAN
125.8851°
Arg perigee
270.0116°
Mean anomaly
90.0550°
Rev number
3,573

§ Raw data

STARLINK-365701 67640U 26020Z   26262.34881920  .00011146  00000+0  41383-3 0  99902 67640  43.0031 125.8851 0001619 270.0116  90.0550 15.27587891 35730

JSON: /api/v1/satellites/67640 · /tle

For live sub-satellite position, see the globe view (requires WebGL).

§ Visibility from observer

Set your observer location to see the next 7 days of passes ≥ 10°. The values pass through the URL so the page stays shareable.

No JS? Fill the form by hand. The geolocation button needs JavaScript.